Location: Unspecified
(35.6961°N, 0.0000°E)
Time: 01:11:26
(UTC+00:00)

Vanguard 3 - Pass Details

Date: 05 June 2019
Orbit: 508 x 3263 km, 33.3° (Epoch: 14 June)

Event Time Altitude Azimuth Distance (km) Brightness Sun altitude
Rises 22:03:31 0° 272° (W) 3,164 10.6 -25.7°
Reaches altitude 10° 22:05:43 10° 262° (W) 2,460 9.8 -25.9°
Enters shadow 22:10:01 33° 214° (SSW) 1,756 8.6 -26.3°
Maximum altitude 22:10:57 34° 198° (SSW) 1,803 - -26.4°
Drops below altitude 10° 22:19:25 10° 139° (SE) 4,024 - -27.2°
Sets 22:24:06 0° 132° (SE) 5,522 - -27.6°
